FW5284 Weather Reports


Display with metric or nautical units.
time (UTC)temp
F
wind
direction
speed
MPH
gust
MPH
rain 1hr
in
rain 24hr
in
rain mn
in
humidity
%
barometer
mb
20260509053507 50 299 0.0 0.0 0.03 0.32 0.04 95 972.8
20260509053024 50 299 0.0 0.0 0.03 0.31 0.03 95 972.9
20260509052507 50 299 0.0 0.0 0.03 0.31 0.03 94 972.9
20260509052007 50 299 0.0 0.0 0.02 0.30 0.02 95 972.9
20260509051523 50 299 0.0 0.0 0.02 0.30 0.02 95 973.0
20260509051012 50 299 0.0 0.0 0.02 0.30 0.02 95 973.0
20260509050504 50 299 0.0 0.0 0.01 0.29 0.01 94 973.0
20260509050011 50 299 0.0 0.0 0.01 0.29 0.01 94 973.1
20260509045503 50 299 0.0 0.0 0.01 0.29 0.01 94 973.1
20260509045003 50 299 0.0 0.0 0.02 0.29 0.01 94 973.1
20260509044516 50 299 0.0 0.0 0.02 0.29 0.01 94 973.2
20260509044007 50 299 0.0 0.0 0.03 0.29 0.01 94 973.0
20260509043508 50 299 0.0 0.0 0.03 0.29 0.01 94 973.2
20260509043018 50 299 0.0 0.0 0.02 0.28 0.00 94 973.2
20260509042506 50 299 0.0 0.0 0.02 0.28 0.00 94 973.2
20260509042014 50 299 0.0 0.0 0.03 0.28 0.00 94 973.3
20260509041532 50 299 0.0 0.0 0.03 0.28 0.00 94 973.4
20260509041012 50 299 0.0 0.0 0.04 0.28 0.00 94 973.4
20260509040511 50 299 0.0 0.0 0.04 0.28 0.00 94 973.5
20260509040029 50 299 0.0 0.0 0.04 0.28 0.00 94 973.5
20260509035518 50 299 0.0 0.0 0.04 0.28 0.28 94 973.7
20260509035011 50 299 0.0 0.0 0.03 0.27 0.27 94 973.8
20260509034509 50 299 0.0 0.0 0.03 0.27 0.27 94 974.0
20260509034004 50 299 0.0 0.0 0.02 0.26 0.26 94 974.0
20260509033506 50 299 0.0 0.0 0.02 0.26 0.26 94 974.0
20260509033003 50 299 0.0 0.0 0.02 0.26 0.26 94 974.0
20260509032503 50 299 0.0 0.0 0.02 0.26 0.26 94 974.0
20260509032002 50 299 0.0 0.0 0.01 0.25 0.25 94 974.1
20260509031505 50 299 0.0 0.0 0.01 0.25 0.25 94 974.1
20260509031003 50 299 0.0 0.0 0.00 0.24 0.24 94 974.2
20260509030506 50 299 0.0 0.0 0.01 0.24 0.24 94 974.2
20260509030006 50 299 0.0 0.0 0.01 0.24 0.24 94 974.0
20260509025503 50 299 0.0 0.0 0.01 0.24 0.24 94 974.0
20260509025003 50 299 0.0 0.0 0.01 0.24 0.24 94 974.0
20260509024508 50 299 0.0 0.0 0.01 0.24 0.24 94 974.1
20260509024003 50 299 0.0 0.0 0.01 0.24 0.24 94 974.1
20260509023503 50 299 0.0 0.0 0.01 0.24 0.24 94 974.2
20260509023017 50 299 0.0 0.0 0.02 0.24 0.24 94 974.2
20260509022504 50 299 0.0 0.0 0.02 0.24 0.24 94 974.2
20260509022003 50 299 0.0 0.0 0.02 0.24 0.24 94 974.2
20260509021520 50 299 0.0 0.0 0.02 0.24 0.24 94 974.3
20260509021002 50 299 0.0 0.0 0.02 0.24 0.24 94 974.2
20260509020505 50 299 0.0 0.0 0.02 0.23 0.23 94 974.3
20260509020010 50 299 0.0 0.0 0.02 0.23 0.23 93 974.2
20260509015504 50 299 0.0 0.0 0.02 0.23 0.23 93 974.2
20260509015004 50 299 0.0 0.0 0.03 0.23 0.23 93 974.2
20260509014512 50 299 0.0 0.0 0.03 0.23 0.23 93 974.3
20260509014003 50 299 0.0 0.0 0.03 0.23 0.23 93 974.3
20260509013503 50 299 0.0 0.0 0.03 0.23 0.23 93 974.3
20260509013020 50 299 0.0 0.0 0.03 0.22 0.22 93 974.2
20260509012504 50 299 0.0 0.0 0.03 0.22 0.22 93 974.3
20260509012007 50 299 0.0 0.0 0.04 0.22 0.22 93 974.2
20260509011516 50 299 0.0 0.0 0.04 0.22 0.22 93 974.2
20260509011005 50 299 0.0 0.0 0.04 0.22 0.22 93 974.2
20260509010504 50 299 0.0 0.0 0.04 0.21 0.21 93 974.2
20260509010022 50 299 0.0 0.0 0.04 0.21 0.21 93 974.2
20260509005503 50 299 0.0 0.0 0.04 0.21 0.21 93 974.1
20260509005003 50 299 0.0 0.0 0.04 0.20 0.20 93 974.2
20260509004510 50 299 0.0 0.0 0.04 0.20 0.20 93 974.1
20260509004002 50 299 0.0 0.0 0.04 0.20 0.20 93 974.2
20260509003503 50 299 0.0 0.0 0.04 0.20 0.20 93 974.1
20260509003008 51 299 0.0 0.0 0.04 0.19 0.19 93 974.1
20260509002504 51 299 0.0 0.0 0.05 0.19 0.19 93 974.0
20260509002003 51 299 0.0 0.0 0.05 0.18 0.18 93 974.0
20260509001514 51 299 0.0 0.0 0.06 0.18 0.18 93 974.0
20260509001006 51 299 0.0 0.0 0.06 0.18 0.18 93 974.0
20260509000508 51 299 0.0 0.0 0.06 0.17 0.17 93 974.0
20260509000017 51 299 0.0 0.0 0.07 0.17 0.17 92 973.9
20260508235507 51 299 0.0 0.0 0.08 0.17 0.17 92 973.9
20260508235007 51 299 0.0 0.0 0.07 0.16 0.16 92 973.8
20260508234519 51 299 0.0 0.0 0.08 0.16 0.16 92 973.9
20260508234009 51 299 0.0 0.0 0.09 0.16 0.16 92 973.9
20260508233503 51 299 0.0 0.0 0.10 0.16 0.16 92 973.9
20260508233004 51 299 0.0 0.0 0.09 0.15 0.15 92 973.8
20260508232502 51 299 0.0 0.0 0.09 0.14 0.14 92 973.8
20260508232003 51 299 0.0 0.0 0.09 0.13 0.13 92 973.6
20260508231512 51 299 0.0 0.0 0.09 0.12 0.12 91 973.5
20260508231004 51 299 0.0 0.0 0.09 0.12 0.12 91 973.6
20260508230504 51 299 0.0 0.0 0.08 0.11 0.11 91 973.7
20260508230016 51 299 0.0 0.0 0.07 0.10 0.10 91 973.8
20260508225506 51 299 0.0 0.0 0.06 0.09 0.09 91 973.9
20260508225008 51 299 0.0 0.0 0.06 0.09 0.09 91 974.0
20260508224525 51 299 0.0 0.0 0.05 0.08 0.08 91 973.9
20260508224006 51 299 0.0 0.0 0.04 0.07 0.07 91 973.9
20260508223506 51 299 0.0 0.0 0.04 0.06 0.06 90 973.9
20260508223029 51 299 0.0 0.0 0.04 0.06 0.06 91 974.0
20260508222507 51 299 0.0 0.0 0.03 0.05 0.05 90 973.9
20260508222003 51 299 0.0 0.0 0.02 0.04 0.04 90 974.0
20260508221507 51 299 0.0 0.0 0.02 0.03 0.03 90 973.9
20260508221004 51 299 0.0 0.0 0.03 0.03 0.03 90 973.5
20260508220504 51 299 0.0 0.0 0.03 0.03 0.03 89 973.4
20260508220023 51 299 0.0 0.0 0.03 0.03 0.03 89 973.5
20260508215503 51 299 0.0 0.0 0.03 0.03 0.03 89 973.6
20260508215005 51 299 0.0 0.0 0.03 0.03 0.03 88 973.6
20260508214528 52 299 0.0 0.0 0.03 0.03 0.03 88 973.9
20260508214005 52 299 0.0 0.0 0.03 0.03 0.03 88 973.8
20260508213506 52 299 0.0 0.0 0.02 0.02 0.02 88 973.7
20260508213028 52 299 0.0 0.0 0.02 0.02 0.02 87 974.0
20260508212508 52 299 0.0 0.0 0.02 0.02 0.02 87 974.1
20260508212010 52 299 0.0 0.0 0.02 0.02 0.02 86 974.1
20260508211534 53 299 0.0 0.0 0.01 0.01 0.01 86 974.3
20260508211009 53 299 0.0 0.0 0.00 0.00 0.00 84 974.1
20260508210507 53 299 0.0 0.0 0.00 0.00 0.00 83 974.2
20260508210008 53 299 0.0 0.0 0.00 0.00 0.00 82 974.1
20260508205504 54 299 0.0 0.0 0.00 0.00 0.00 81 974.1
20260508205007 54 299 0.0 0.0 0.00 0.00 0.00 80 974.2
20260508204516 55 299 0.0 0.0 0.00 0.00 0.00 79 974.3
20260508204005 55 299 0.0 0.0 0.00 0.00 0.00 79 974.5
20260508203507 55 299 0.0 0.0 0.00 0.00 0.00 78 974.6
20260508203017 56 299 0.0 0.0 0.00 0.00 0.00 76 974.5
20260508202508 56 299 0.0 0.0 0.00 0.00 0.00 75 974.7
20260508202006 57 299 0.0 0.0 0.00 0.00 0.00 74 974.7
20260508201524 57 299 0.0 0.0 0.00 0.00 0.00 73 974.7
20260508201011 57 299 0.0 0.0 0.00 0.00 0.00 72 974.8
20260508200508 58 299 0.0 0.0 0.00 0.00 0.00 71 974.7
20260508200026 58 299 0.0 0.0 0.00 0.00 0.00 72 974.7
20260508195510 58 299 0.0 0.0 0.00 0.00 0.00 72 974.7
20260508195007 58 299 0.0 0.0 0.00 0.00 0.00 71 974.7
20260508194524 58 299 0.0 0.0 0.00 0.00 0.00 71 974.7
20260508194007 58 299 0.0 0.0 0.00 0.00 0.00 71 974.7
20260508193504 58 299 0.0 0.0 0.00 0.00 0.00 71 974.7
20260508193017 58 299 0.0 0.0 0.00 0.00 0.00 71 974.8
20260508192506 59 300 0.0 0.0 0.00 0.00 0.00 68 974.8
20260508192008 59 300 0.0 0.0 0.00 0.00 0.00 69 974.8
20260508191526 60 299 0.0 0.0 0.00 0.00 0.00 68 974.7
20260508191007 60 299 0.0 0.0 0.00 0.00 0.00 70 974.7
20260508190511 60 298 0.0 0.0 0.00 0.00 0.00 69 974.8
20260508190023 60 298 0.0 0.0 0.00 0.00 0.00 70 974.8
20260508185507 59 298 0.0 0.0 0.00 0.00 0.00 71 974.8
20260508185012 59 299 0.0 0.0 0.00 0.00 0.00 71 974.8
20260508184529 59 299 0.0 0.0 0.00 0.00 0.00 71 974.9
20260508184011 58 298 0.0 0.0 0.00 0.00 0.00 71 974.9
20260508183508 58 299 0.0 0.0 0.00 0.00 0.00 73 975.0
20260508183022 57 299 0.0 0.0 0.00 0.00 0.00 73 975.1
20260508182503 57 299 0.0 0.0 0.00 0.00 0.00 73 975.0
20260508182006 57 299 0.0 0.0 0.00 0.00 0.00 73 975.0
20260508181517 57 299 0.0 0.0 0.00 0.00 0.00 70 975.2
20260508181010 58 299 0.0 0.0 0.00 0.00 0.00 71 975.3
20260508180509 58 299 0.0 0.0 0.00 0.00 0.00 71 975.3
20260508180024 58 298 0.0 0.0 0.00 0.00 0.00 72 975.3
20260508175507 58 297 0.0 0.0 0.00 0.00 0.00 73 975.3
20260508175010 58 297 0.0 0.0 0.00 0.00 0.00 71 975.3
20260508174526 58 297 0.0 0.0 0.00 0.00 0.00 70 975.5
20260508174008 58 297 0.0 0.0 0.00 0.00 0.00 70 975.5
20260508173511 59 297 0.0 0.0 0.00 0.00 0.00 68 975.3
20260508173028 59 298 0.0 0.0 0.00 0.00 0.00 66 975.3
20260508172508 59 299 0.0 0.0 0.00 0.00 0.00 66 975.3
20260508172012 59 297 0.0 0.0 0.00 0.00 0.00 66 975.3
20260508171528 59 297 0.0 0.0 0.00 0.00 0.00 65 975.4
20260508171008 59 297 0.0 0.0 0.00 0.00 0.00 66 975.4
20260508170504 59 297 0.0 0.0 0.00 0.00 0.00 66 975.3
20260508170020 59 297 0.0 0.0 0.00 0.00 0.00 65 975.4
20260508165507 59 297 0.0 0.0 0.00 0.00 0.00 68 975.5
20260508165006 59 297 0.0 0.0 0.00 0.00 0.00 66 975.4
20260508164527 59 297 0.0 0.0 0.00 0.00 0.00 65 975.5
20260508164006 58 297 0.0 0.0 0.00 0.00 0.00 68 975.6
20260508163509 58 297 0.0 0.0 0.00 0.00 0.00 66 975.6
20260508163027 59 297 0.0 0.0 0.00 0.00 0.00 65 975.6
20260508162510 59 299 0.0 0.0 0.00 0.00 0.00 66 975.7
20260508162013 59 297 0.0 0.0 0.00 0.00 0.00 67 975.6
20260508161526 58 296 0.0 0.0 0.00 0.00 0.00 67 975.7
20260508161011 58 296 0.0 0.0 0.00 0.00 0.00 68 975.8
20260508160509 58 297 0.0 0.0 0.00 0.00 0.00 68 975.9
20260508160027 58 296 0.0 0.0 0.00 0.00 0.00 67 975.9
20260508155507 58 297 0.0 0.0 0.00 0.00 0.00 67 975.9
20260508155007 58 296 0.0 0.0 0.00 0.00 0.00 66 976.0
20260508154541 57 296 0.0 0.0 0.00 0.00 0.00 69 975.9
20260508154009 57 297 0.0 0.0 0.00 0.00 0.00 69 975.9
20260508153503 57 296 0.0 0.0 0.00 0.00 0.00 69 975.8
20260508153011 57 296 0.0 0.0 0.00 0.00 0.00 66 976.0
20260508152504 57 296 0.0 0.0 0.00 0.00 0.00 69 976.0
20260508152003 57 297 0.0 0.0 0.00 0.00 0.00 70 975.9
20260508151512 57 297 0.0 0.0 0.00 0.00 0.00 68 975.9
20260508151002 57 297 0.0 0.0 0.00 0.00 0.00 69 976.0
20260508150504 57 297 0.0 0.0 0.00 0.00 0.00 68 976.0
20260508150011 57 296 0.0 0.0 0.00 0.00 0.00 67 976.1
20260508145506 56 296 0.0 0.0 0.00 0.00 0.00 68 976.1
20260508145002 56 296 0.0 0.0 0.00 0.00 0.00 66 976.0
20260508144504 56 296 0.0 0.0 0.00 0.00 0.00 68 976.0
20260508144006 56 296 0.0 0.0 0.00 0.00 0.00 71 975.9
20260508143505 55 296 0.0 0.0 0.00 0.00 0.00 69 975.8
20260508143003 55 296 0.0 0.0 0.00 0.00 0.00 71 975.9
20260508142503 54 296 0.0 0.0 0.00 0.00 0.00 71 976.0
20260508142003 53 296 0.0 0.0 0.00 0.00 0.00 74 976.0
20260508141506 53 296 0.0 0.0 0.00 0.00 0.00 72 976.1
20260508141003 52 296 0.0 0.0 0.00 0.00 0.00 73 976.2
20260508140504 52 296 0.0 0.0 0.00 0.00 0.00 72 976.2
20260508140010 52 296 0.0 0.0 0.00 0.00 0.00 74 976.3
20260508135506 51 296 0.0 0.0 0.00 0.00 0.00 75 976.3
20260508135007 51 296 0.0 0.0 0.00 0.00 0.00 75 976.4
20260508134515 50 296 0.0 0.0 0.00 0.00 0.00 79 976.4
20260508134004 50 296 0.0 0.0 0.00 0.00 0.00 78 976.4
20260508133503 50 296 0.0 0.0 0.00 0.00 0.00 80 976.4
20260508133006 50 296 0.0 0.0 0.00 0.00 0.00 80 976.4
20260508132504 50 296 0.0 0.0 0.00 0.00 0.00 80 976.5
20260508132004 50 296 0.0 0.0 0.00 0.00 0.00 80 976.8
20260508131505 50 296 0.0 0.0 0.00 0.00 0.00 80 976.8
20260508131004 50 296 0.0 0.0 0.00 0.00 0.00 80 976.8
20260508130504 50 296 0.0 0.0 0.00 0.00 0.00 80 976.7
20260508130014 50 296 0.0 0.0 0.00 0.00 0.00 80 976.6
20260508125504 49 296 0.0 0.0 0.00 0.00 0.00 79 976.7
20260508125004 50 296 0.0 0.0 0.00 0.00 0.00 80 976.3
20260508124517 49 296 0.0 0.0 0.00 0.00 0.00 79 976.4
20260508124004 49 296 0.0 0.0 0.00 0.00 0.00 79 976.4
20260508123509 49 296 0.0 0.0 0.00 0.00 0.00 79 976.4
20260508123026 49 296 0.0 0.0 0.00 0.00 0.00 78 976.3
20260508122504 49 296 0.0 0.0 0.00 0.00 0.00 79 976.3
20260508122007 49 296 0.0 0.0 0.00 0.00 0.00 82 976.2
20260508121505 49 296 0.0 0.0 0.00 0.00 0.00 83 976.1
20260508121003 48 296 0.0 0.0 0.00 0.00 0.00 84 976.1
20260508120503 48 296 0.0 0.0 0.00 0.00 0.00 82 976.1
20260508120006 48 296 0.0 0.0 0.00 0.00 0.00 82 976.0
20260508115504 48 296 0.0 0.0 0.00 0.00 0.00 82 976.0
20260508115003 47 296 0.0 0.0 0.00 0.00 0.00 83 976.0
20260508114511 47 296 0.0 0.0 0.00 0.00 0.00 84 975.8
20260508114004 47 296 0.0 0.0 0.00 0.00 0.00 85 975.6
20260508113504 46 296 0.0 0.0 0.00 0.00 0.00 85 975.6
20260508113019 46 296 0.0 0.0 0.00 0.00 0.00 85 975.5
20260508112506 46 296 0.0 0.0 0.00 0.00 0.00 85 975.6
20260508112006 45 296 0.0 0.0 0.00 0.00 0.00 85 975.7
20260508111519 45 296 0.0 0.0 0.00 0.00 0.00 85 975.7
20260508111008 45 296 0.0 0.0 0.00 0.00 0.00 85 975.7
20260508110507 45 296 0.0 0.0 0.00 0.00 0.00 86 975.8
20260508110004 45 296 0.0 0.0 0.00 0.00 0.00 86 975.8
20260508105503 44 296 0.0 0.0 0.00 0.00 0.00 87 975.8
20260508105003 44 296 0.0 0.0 0.00 0.00 0.00 88 976.1
20260508104508 43 296 0.0 0.0 0.00 0.00 0.00 88 976.0
20260508104004 43 296 0.0 0.0 0.00 0.00 0.00 87 975.7
20260508103504 43 296 0.0 0.0 0.00 0.00 0.00 87 975.5
20260508103013 43 296 0.0 0.0 0.00 0.00 0.00 86 975.6
20260508102503 43 296 0.0 0.0 0.00 0.00 0.00 86 975.7
20260508102005 43 296 0.0 0.0 0.00 0.00 0.00 86 975.7
20260508101518 43 296 0.0 0.0 0.00 0.00 0.00 86 975.7
20260508101007 43 296 0.0 0.0 0.00 0.00 0.00 86 975.7
20260508100507 43 296 0.0 0.0 0.00 0.00 0.00 85 975.6
20260508100022 43 296 0.0 0.0 0.00 0.00 0.00 85 975.7
20260508095506 43 296 0.0 0.0 0.00 0.00 0.00 85 975.9
20260508095011 44 296 0.0 0.0 0.00 0.00 0.00 85 975.7
20260508094523 44 296 0.0 0.0 0.00 0.00 0.00 86 975.8
20260508094003 44 296 0.0 0.0 0.00 0.00 0.00 86 975.7
20260508093504 43 296 0.0 0.0 0.00 0.00 0.00 86 975.9
20260508093011 43 296 0.0 0.0 0.00 0.00 0.00 86 975.9
20260508092503 43 296 0.0 0.0 0.00 0.00 0.00 86 975.8
20260508092003 44 296 0.0 0.0 0.00 0.00 0.00 85 975.8
20260508091513 44 296 0.0 0.0 0.00 0.00 0.00 85 975.9
20260508091008 44 296 0.0 0.0 0.00 0.00 0.00 84 975.9
20260508090505 44 296 0.0 0.0 0.00 0.00 0.00 83 976.0
20260508090033 44 296 0.0 0.0 0.00 0.00 0.00 83 976.0
20260508085506 44 296 0.0 0.0 0.00 0.00 0.00 82 976.0
20260508085006 45 296 0.0 0.0 0.00 0.00 0.00 82 976.0
20260508084522 45 296 0.0 0.0 0.00 0.00 0.00 82 976.0
20260508084008 45 296 0.0 0.0 0.00 0.00 0.00 81 976.1
20260508083512 45 296 0.0 0.0 0.00 0.00 0.00 81 976.1
20260508083024 46 296 0.0 0.0 0.00 0.00 0.00 80 975.9
20260508082511 46 296 0.0 0.0 0.00 0.00 0.00 80 976.0
20260508082003 46 296 0.0 0.0 0.00 0.00 0.00 79 976.0
20260508081512 47 296 0.0 0.0 0.00 0.00 0.00 78 976.0
20260508081004 47 296 0.0 0.0 0.00 0.00 0.00 78 976.1
20260508080503 47 296 0.0 0.0 0.00 0.00 0.00 77 976.1
20260508080015 47 296 0.0 0.0 0.00 0.00 0.00 76 976.1
20260508075508 48 296 0.0 0.0 0.00 0.00 0.00 77 976.1
20260508075006 48 296 0.0 0.0 0.00 0.00 0.00 75 976.2
20260508074524 48 296 0.0 0.0 0.00 0.00 0.00 75 976.1
20260508074009 48 296 0.0 0.0 0.00 0.00 0.00 74 976.1
20260508073510 48 296 0.0 0.0 0.00 0.00 0.00 74 976.1
20260508073024 47 296 0.0 0.0 0.00 0.00 0.00 76 976.1
20260508072510 47 296 0.0 0.0 0.00 0.00 0.00 76 976.1
20260508072007 46 296 0.0 0.0 0.00 0.00 0.00 77 976.2
20260508071526 45 296 0.0 0.0 0.00 0.00 0.00 79 976.1
20260508071013 45 296 0.0 0.0 0.00 0.00 0.00 82 976.2
20260508070508 44 296 0.0 0.0 0.00 0.00 0.00 85 976.1
20260508070014 44 296 0.0 0.0 0.00 0.00 0.00 85 976.1
20260508065504 44 296 0.0 0.0 0.00 0.00 0.00 86 976.1
20260508065008 44 296 0.0 0.0 0.00 0.00 0.00 86 976.1
20260508064518 44 296 0.0 0.0 0.00 0.00 0.00 86 976.2
20260508064006 44 296 0.0 0.0 0.00 0.00 0.00 86 976.1
20260508063504 44 296 0.0 0.0 0.00 0.00 0.00 86 976.1
20260508063008 44 296 0.0 0.0 0.00 0.00 0.00 86 976.2
20260508062503 44 296 0.0 0.0 0.00 0.00 0.00 86 976.2
20260508062003 44 296 0.0 0.0 0.00 0.00 0.00 86 976.2
20260508061503 44 296 0.0 0.0 0.00 0.00 0.00 86 976.3
20260508061006 44 296 0.0 0.0 0.00 0.00 0.00 85 976.3
20260508060506 44 296 0.0 0.0 0.00 0.00 0.00 85 976.3
20260508060009 44 296 0.0 0.0 0.00 0.00 0.00 85 976.3
20260508055506 44 296 0.0 0.0 0.00 0.00 0.00 85 976.3
20260508055010 44 296 0.0 0.0 0.00 0.00 0.00 85 976.4
20260508054516 44 296 0.0 0.0 0.00 0.00 0.00 85 976.5
20260508054011 44 296 0.0 0.0 0.00 0.00 0.00 85 976.6